Regional Weather Roundup
Issued by NWS New Orleans/Baton Rouge, LA

Home | Current Version | Previous Version | Text Only | Print | Product List | Glossary Off
Versions: 1 2 3 4 5 6 7 8 9 10 11 12 13 14 15 16 17 18 19 20 21 22 23 24 25 26 27 28 29 30 31 32 33 34 35 36 37 38 39 40 41 42 43 44 45 46 47 48 49 50

661
ASUS44 KLIX 202101
RWRLIX
NEW ORLEANS REGIONAL WEATHER ROUNDUP
NATIONAL WEATHER SERVICE NEW ORLEANS LA
300 PM CST SAT DEC 20 2014

NOTE: "FAIR" INDICATES FEW OR NO CLOUDS BELOW 12,000 FEET WITH NO
      SIGNIFICANT WEATHER AND/OR OBSTRUCTIONS TO VISIBILITY.
      SKY/WX - SKY CONDITION AND SIGNIFICANT WEATHER.
      TMP - AIR TEMPERATURE.     DP    - DEWPOINT TEMPERATURE.
      RH  - RELATIVE HUMIDITY.   PRES  - PRESSURE.
      HI  - HEAT INDEX.          WCI   - WIND CHILL INDEX.

*  THESE STATIONS ARE NOT NWS OR FAA STATIONS AND ARE NOT UNDER
   NWS QUALITY CONTROL.

LAZ038-040-048-061>063-065>067-069-202200-
SOUTHEAST LOUISIANA

CITY           SKY/WX    TMP DP  RH WIND       PRES   REMARKS
N.O. AUDUBON     N/A     55  50  82 MISG        N/A
N.O. INTL ARPT CLOUDY    53  48  83 N13       30.10F
N.O. LAKEFRONT CLOUDY    55  48  77 N16       30.10F
N.O. DOWNTOWN* CLOUDY    54  46  76 NE8       30.10S
SLIDELL        CLOUDY    53  47  79 N9        30.11R
BATON ROUGE    CLOUDY    51  46  83 NE10      30.13S
BOOTHVILLE     CLOUDY    56  52  86 NE12G17   30.08R
BELLE CHASSE   CLOUDY    55  49  80 N6        30.09S
BOGALUSA*        N/A     53  46  78 NE6       30.14S
GALLIANO*      NOT AVBL
NEW ROADS*     NOT AVBL
GONZALES*      NOT AVBL
HAMMOND*       NOT AVBL
HOUMA*         CLOUDY    52  50  93 N9        30.09S
PORT FOURCHON* CLOUDY    55  52  88 NE18      30.10R

$$

MSZ070-080>082-202200-
SOUTHERN MISSISSIPPI

CITY           SKY/WX    TMP DP  RH WIND       PRES   REMARKS
MCCOMB         CLOUDY    50  44  80 NE8       30.13F
GULFPORT       CLOUDY    52  47  83 N13       30.10R
BILOXI         CLOUDY    52  49  92 N10       30.10S
PASCAGOULA     CLOUDY    51  48  89 N14       30.09F
STENNIS ARPT*  CLOUDY    52  45  76 N12       30.10F

$$

COASTAL OBSERVATIONS
LAKE AND NEARSHORE STATIONS

STATION/POSITION TIME  TEMP    WIND        PRES    WAVE
                       AIR SEA DIR/SP/G            HT/PER
                 (UTC) (F)     (DEG/KT/KT) (MB)    (FT/S)
PASCAGOULA       2000   51      10/  9/ 14 1018.5
WAVELAND YACHT   2000   52      30/ 13/ 15 1018.1
GRAND ISLE       2000   55 60   40/ 10/ 16 1018.9
SOUTHWEST PASS   2000   57                 1017.8
NEW CANAL        2000   53 56   10/ 13/ 15 1019.4
SHELL BEACH      2000   54 57   20/ 13/ 15 1018.6

OFFSHORE STATIONS

STATION/POSITION TIME  TEMP    WIND        PRES    WAVE
                       AIR SEA DIR/SP/G            HT/PER
                 (UTC) (F)     (DEG/KT/KT) (MB)    (FT/S)
64 S DAUPHIN ISL 2100   64 74   50/ 21/ 25 1016.1    8/ 7

$$




USA.gov is the U.S. government's official web portal to all federal, state and local government web resources and services.